| time (UTC) | temp F | wind direction | speed knots | gust knots | rain 1hr in | rain 24hr in | rain mn in | humidity % | barometer mb |
| 20260503203529 | 59 | 251 | 6.1 | 8.7 | 0.00 | 0.00 | 0.00 | 31 | 1017.2 |
| 20260503203026 | 57 | 241 | 0.0 | 7.0 | 0.00 | 0.00 | 0.00 | 36 | 1017.6 |
| 20260503202524 | 59 | 211 | 3.5 | 7.8 | 0.00 | 0.00 | 0.00 | 34 | 1017.6 |
| 20260503202022 | 60 | 268 | 0.9 | 3.5 | 0.00 | 0.00 | 0.00 | 28 | 1017.5 |
| 20260503201520 | 60 | 184 | 0.0 | 1.7 | 0.00 | 0.00 | 0.00 | 33 | 1017.7 |
| 20260503201017 | 59 | 90 | 1.7 | 2.6 | 0.00 | 0.00 | 0.00 | 31 | 1017.5 |
| 20260503200513 | 58 | 326 | 1.7 | 1.7 | 0.00 | 0.00 | 0.00 | 34 | 1017.6 |
| 20260503200010 | 59 | 227 | 3.5 | 3.5 | 0.00 | 0.00 | 0.00 | 31 | 1017.9 |
| 20260503195507 | 58 | 13 | 0.0 | 1.7 | 0.00 | 0.00 | 0.00 | 40 | 1017.6 |
| 20260503195003 | 57 | 8 | 0.0 | 6.1 | 0.00 | 0.00 | 0.00 | 31 | 1017.9 |
| 20260503194501 | 57 | 206 | 1.7 | 2.6 | 0.00 | 0.00 | 0.00 | 35 | 1017.9 |
| 20260503194000 | 56 | 168 | 3.5 | 11.3 | 0.00 | 0.00 | 0.00 | 33 | 1018.1 |
| 20260503193457 | 56 | 106 | 1.7 | 6.1 | 0.00 | 0.00 | 0.00 | 33 | 1018.1 |
| 20260503192953 | 56 | 259 | 3.5 | 8.7 | 0.00 | 0.00 | 0.00 | 32 | 1018.5 |
| 20260503192449 | 56 | 210 | 3.5 | 7.8 | 0.00 | 0.00 | 0.00 | 33 | 1018.0 |
| 20260503191944 | 56 | 83 | 1.7 | 1.7 | 0.00 | 0.00 | 0.00 | 37 | 1018.2 |
| 20260503191443 | 58 | 205 | 2.6 | 6.1 | 0.00 | 0.00 | 0.00 | 30 | 1018.0 |
| 20260503190938 | 57 | 348 | 1.7 | 1.7 | 0.00 | 0.00 | 0.00 | 34 | 1018.3 |
| 20260503190436 | 57 | 219 | 0.0 | 1.7 | 0.00 | 0.00 | 0.00 | 29 | 1018.3 |
| 20260503185933 | 56 | 245 | 1.7 | 5.2 | 0.00 | 0.00 | 0.00 | 30 | 1018.8 |
| 20260503185429 | 55 | 20 | 0.0 | 1.7 | 0.00 | 0.00 | 0.00 | 34 | 1018.6 |
| 20260503184928 | 56 | 334 | 3.5 | 5.2 | 0.00 | 0.00 | 0.00 | 32 | 1018.8 |
| 20260503184425 | 57 | 0 | 2.6 | 3.5 | 0.00 | 0.00 | 0.00 | 30 | 1018.9 |
| 20260503183922 | 56 | 143 | 0.0 | 2.6 | 0.00 | 0.00 | 0.00 | 42 | 1018.9 |
| 20260503183418 | 56 | 242 | 3.5 | 3.5 | 0.00 | 0.00 | 0.00 | 37 | 1019.0 |
| 20260503182916 | 55 | 188 | 0.0 | 2.6 | 0.00 | 0.00 | 0.00 | 38 | 1019.0 |
| 20260503182415 | 53 | 207 | 5.2 | 6.1 | 0.00 | 0.00 | 0.00 | 38 | 1019.0 |
| 20260503181911 | 55 | 241 | 6.1 | 14.8 | 0.00 | 0.00 | 0.00 | 38 | 1019.1 |
| 20260503181408 | 55 | 248 | 4.3 | 7.0 | 0.00 | 0.00 | 0.00 | 38 | 1018.9 |
| 20260503180904 | 54 | 7 | 0.9 | 5.2 | 0.00 | 0.00 | 0.00 | 33 | 1019.0 |
| 20260503180403 | 54 | 277 | 3.5 | 5.2 | 0.00 | 0.00 | 0.00 | 38 | 1019.4 |
| 20260503175859 | 53 | 199 | 7.0 | 12.2 | 0.00 | 0.00 | 0.00 | 33 | 1019.1 |
| 20260503175357 | 53 | 269 | 2.6 | 7.8 | 0.00 | 0.00 | 0.00 | 34 | 1019.2 |
| 20260503174857 | 53 | 84 | 2.6 | 7.0 | 0.00 | 0.00 | 0.00 | 39 | 1019.1 |
| 20260503174356 | 54 | 194 | 5.2 | 7.0 | 0.00 | 0.00 | 0.00 | 35 | 1019.4 |
| 20260503173851 | 53 | 160 | 0.9 | 1.7 | 0.00 | 0.00 | 0.00 | 34 | 1019.2 |
| 20260503173347 | 53 | 307 | 4.3 | 12.2 | 0.00 | 0.00 | 0.00 | 32 | 1019.5 |
| 20260503172844 | 53 | 217 | 3.5 | 7.8 | 0.00 | 0.00 | 0.00 | 42 | 1019.4 |
| 20260503172342 | 53 | 306 | 2.6 | 2.6 | 0.00 | 0.00 | 0.00 | 33 | 1019.5 |
| 20260503171837 | 52 | 117 | 1.7 | 6.1 | 0.00 | 0.00 | 0.00 | 35 | 1019.6 |
| 20260503171335 | 52 | 199 | 2.6 | 7.0 | 0.00 | 0.00 | 0.00 | 34 | 1019.8 |
| 20260503170832 | 51 | 49 | 3.5 | 6.1 | 0.00 | 0.00 | 0.00 | 38 | 1019.6 |
| 20260503170328 | 51 | 73 | 3.5 | 5.2 | 0.00 | 0.00 | 0.00 | 41 | 1019.6 |
| 20260503150720 | 46 | 215 | 2.6 | 5.2 | 0.00 | 0.00 | 0.00 | 47 | 1020.8 |
| 20260503150217 | 47 | 190 | 7.0 | 9.6 | 0.00 | 0.00 | 0.00 | 46 | 1020.8 |
| 20260503140141 | 44 | 25 | 0.9 | 7.0 | 0.00 | 0.00 | 0.00 | 52 | 1020.7 |
| 20260503131110 | 41 | 226 | 2.6 | 5.2 | 0.00 | 0.00 | 0.00 | 55 | 1020.9 |
| 20260503130608 | 41 | 68 | 3.5 | 9.6 | 0.00 | 0.00 | 0.00 | 55 | 1020.6 |
| 20260503130106 | 42 | 71 | 1.7 | 7.8 | 0.00 | 0.00 | 0.00 | 54 | 1020.7 |
| 20260503110458 | 37 | 211 | 1.7 | 3.5 | 0.00 | 0.00 | 0.00 | 65 | 1019.1 |
| 20260503090344 | 38 | 57 | 0.9 | 3.5 | 0.00 | 0.00 | 0.00 | 66 | 1018.1 |
| 20260503081311 | 39 | 85 | 4.3 | 6.1 | 0.00 | 0.00 | 0.00 | 65 | 1017.6 |
| 20260503080807 | 39 | 209 | 2.6 | 6.1 | 0.00 | 0.00 | 0.00 | 63 | 1017.8 |
| 20260503080305 | 39 | 20 | 0.0 | 0.9 | 0.00 | 0.00 | 0.00 | 66 | 1017.6 |
| 20260503072741 | 39 | 243 | 1.7 | 7.8 | 0.00 | 0.00 | 0.00 | 65 | 1017.1 |
| 20260503072238 | 39 | 178 | 0.9 | 1.7 | 0.00 | 0.00 | 0.00 | 67 | 1017.2 |
| 20260503071734 | 39 | 37 | 2.6 | 5.2 | 0.00 | 0.00 | 0.00 | 65 | 1017.1 |
| 20260503071231 | 39 | 56 | 2.6 | 6.1 | 0.00 | 0.00 | 0.00 | 65 | 1017.1 |
| 20260503070727 | 39 | 344 | 1.7 | 2.6 | 0.00 | 0.00 | 0.00 | 65 | 1016.9 |
| 20260503070226 | 39 | 113 | 7.0 | 11.3 | 0.00 | 0.00 | 0.00 | 63 | 1016.9 |
| 20260503060145 | 40 | 53 | 2.6 | 3.5 | 0.00 | 0.00 | 0.00 | 61 | 1017.1 |
| 20260503054632 | 40 | 91 | 0.9 | 5.2 | 0.00 | 0.00 | 0.00 | 63 | 1017.1 |
| 20260503054129 | 41 | 80 | 3.5 | 6.1 | 0.00 | 0.00 | 0.00 | 59 | 1017.1 |
| 20260503053628 | 41 | 331 | 1.7 | 5.2 | 0.00 | 0.00 | 0.00 | 63 | 1017.2 |
| 20260503053126 | 41 | 19 | 1.7 | 2.6 | 0.00 | 0.00 | 0.00 | 65 | 1017.1 |
| 20260503052622 | 41 | 20 | 0.0 | 0.0 | 0.00 | 0.00 | 0.00 | 65 | 1017.2 |
| 20260503052118 | 41 | 54 | 0.0 | 0.0 | 0.00 | 0.00 | 0.00 | 65 | 1017.0 |
| 20260503051613 | 41 | 101 | 1.7 | 1.7 | 0.00 | 0.00 | 0.00 | 64 | 1016.9 |
| 20260503051111 | 41 | 228 | 0.9 | 6.1 | 0.00 | 0.00 | 0.00 | 63 | 1017.1 |
| 20260503050608 | 41 | 299 | 0.0 | 0.9 | 0.00 | 0.00 | 0.00 | 65 | 1017.1 |
| 20260503050105 | 41 | 35 | 2.6 | 5.2 | 0.00 | 0.00 | 0.00 | 65 | 1017.0 |
| 20260503045601 | 41 | 48 | 0.9 | 2.6 | 0.00 | 0.00 | 0.00 | 70 | 1017.1 |
| 20260503045059 | 41 | 343 | 2.6 | 3.5 | 0.00 | 0.00 | 0.00 | 68 | 1017.2 |
| 20260503044555 | 41 | 12 | 0.0 | 1.7 | 0.00 | 0.00 | 0.00 | 66 | 1017.1 |
| 20260503044053 | 41 | 190 | 2.6 | 2.6 | 0.00 | 0.00 | 0.00 | 71 | 1017.1 |
| 20260503043549 | 40 | 128 | 1.7 | 2.6 | 0.00 | 0.00 | 0.00 | 68 | 1017.1 |
| 20260503043045 | 41 | 237 | 0.0 | 0.9 | 0.00 | 0.00 | 0.00 | 75 | 1017.1 |
| 20260503042542 | 42 | 47 | 0.0 | 2.6 | 0.00 | 0.00 | 0.00 | 64 | 1017.1 |
| 20260503042039 | 41 | 48 | 1.7 | 2.6 | 0.00 | 0.00 | 0.00 | 68 | 1017.1 |
| 20260503041536 | 41 | 162 | 0.9 | 2.6 | 0.00 | 0.00 | 0.00 | 68 | 1017.1 |
| 20260503041034 | 41 | 5 | 1.7 | 2.6 | 0.00 | 0.00 | 0.00 | 68 | 1017.0 |
| 20260503040531 | 41 | 29 | 0.0 | 0.0 | 0.00 | 0.00 | 0.00 | 67 | 1017.3 |
| 20260503040028 | 41 | 57 | 2.6 | 3.5 | 0.00 | 0.00 | 0.00 | 67 | 1017.1 |
| 20260503035525 | 41 | 46 | 2.6 | 2.6 | 0.00 | 0.00 | 0.00 | 68 | 1017.1 |
| 20260503035022 | 41 | 54 | 1.7 | 2.6 | 0.00 | 0.00 | 0.00 | 70 | 1017.1 |
| 20260503034519 | 41 | 43 | 0.0 | 0.0 | 0.00 | 0.00 | 0.00 | 67 | 1017.3 |
| 20260503034016 | 41 | 116 | 2.6 | 2.6 | 0.00 | 0.00 | 0.00 | 66 | 1017.3 |
| 20260503033513 | 41 | 59 | 0.9 | 1.7 | 0.00 | 0.00 | 0.00 | 70 | 1017.2 |
| 20260503033011 | 41 | 52 | 0.9 | 1.7 | 0.00 | 0.00 | 0.00 | 70 | 1017.3 |
| 20260503032510 | 41 | 87 | 0.0 | 1.7 | 0.00 | 0.00 | 0.00 | 67 | 1017.3 |
| 20260503032008 | 41 | 73 | 1.7 | 2.6 | 0.00 | 0.00 | 0.00 | 68 | 1017.2 |
| 20260503031506 | 42 | 203 | 0.0 | 0.0 | 0.00 | 0.00 | 0.00 | 66 | 1017.2 |
| 20260503031002 | 42 | 195 | 0.9 | 1.7 | 0.00 | 0.00 | 0.00 | 67 | 1017.2 |
| 20260503030458 | 42 | 230 | 1.7 | 3.5 | 0.00 | 0.00 | 0.00 | 64 | 1017.3 |
| 20260503025955 | 43 | 257 | 0.0 | 2.6 | 0.00 | 0.00 | 0.00 | 64 | 1017.3 |
| 20260503025452 | 43 | 67 | 1.7 | 2.6 | 0.00 | 0.00 | 0.00 | 62 | 1017.3 |
| 20260503024949 | 42 | 221 | 1.7 | 3.5 | 0.00 | 0.00 | 0.00 | 61 | 1017.4 |
| 20260503024445 | 42 | 123 | 0.0 | 0.0 | 0.00 | 0.00 | 0.00 | 66 | 1017.3 |
| 20260503023943 | 43 | 286 | 0.0 | 3.5 | 0.00 | 0.00 | 0.00 | 63 | 1017.4 |
| 20260503023440 | 43 | 283 | 1.7 | 1.7 | 0.00 | 0.00 | 0.00 | 59 | 1017.6 |
| 20260503022937 | 43 | 214 | 0.9 | 2.6 | 0.00 | 0.00 | 0.00 | 58 | 1017.6 |
| 20260503022432 | 43 | 247 | 1.7 | 5.2 | 0.00 | 0.00 | 0.00 | 59 | 1017.3 |
| 20260503021928 | 43 | 220 | 4.3 | 5.2 | 0.00 | 0.00 | 0.00 | 57 | 1017.2 |
| 20260503021424 | 42 | 289 | 0.9 | 2.6 | 0.00 | 0.00 | 0.00 | 59 | 1017.5 |
| 20260503020922 | 42 | 46 | 0.0 | 0.0 | 0.00 | 0.00 | 0.00 | 64 | 1017.1 |
| 20260503020419 | 43 | 128 | 0.0 | 0.0 | 0.00 | 0.00 | 0.00 | 64 | 1017.2 |
| 20260503015915 | 43 | 136 | 0.0 | 0.0 | 0.00 | 0.00 | 0.00 | 64 | 1017.0 |
| 20260503015412 | 43 | 108 | 1.7 | 2.6 | 0.00 | 0.00 | 0.00 | 62 | 1016.8 |
| 20260503014908 | 43 | 155 | 0.0 | 1.7 | 0.00 | 0.00 | 0.00 | 58 | 1017.0 |
| 20260503014405 | 44 | 95 | 3.5 | 3.5 | 0.00 | 0.00 | 0.00 | 54 | 1017.1 |
| 20260503013903 | 44 | 36 | 1.7 | 1.7 | 0.00 | 0.00 | 0.00 | 55 | 1017.1 |
| 20260503013400 | 44 | 6 | 0.0 | 0.0 | 0.00 | 0.00 | 0.00 | 52 | 1017.0 |
| 20260503012857 | 44 | 278 | 0.0 | 2.6 | 0.00 | 0.00 | 0.00 | 51 | 1017.1 |
| 20260503012354 | 44 | 339 | 0.0 | 0.9 | 0.00 | 0.00 | 0.00 | 55 | 1016.8 |
| 20260503011851 | 45 | 246 | 0.9 | 2.6 | 0.00 | 0.00 | 0.00 | 51 | 1016.7 |
| 20260503011348 | 45 | 218 | 2.6 | 5.2 | 0.00 | 0.00 | 0.00 | 52 | 1016.9 |
| 20260503010844 | 45 | 69 | 2.6 | 3.5 | 0.00 | 0.00 | 0.00 | 51 | 1016.9 |
| 20260503010342 | 45 | 18 | 2.6 | 2.6 | 0.00 | 0.00 | 0.00 | 52 | 1016.5 |
| 20260503005838 | 45 | 240 | 0.0 | 0.0 | 0.00 | 0.00 | 0.00 | 49 | 1016.7 |
| 20260503005336 | 45 | 161 | 0.9 | 1.7 | 0.00 | 0.00 | 0.00 | 49 | 1016.3 |
| 20260503004833 | 46 | 210 | 2.6 | 2.6 | 0.00 | 0.00 | 0.00 | 49 | 1016.1 |
| 20260503004330 | 46 | 186 | 3.5 | 5.2 | 0.00 | 0.00 | 0.00 | 47 | 1016.1 |
| 20260503003827 | 44 | 152 | 0.9 | 1.7 | 0.00 | 0.00 | 0.00 | 52 | 1016.1 |
| 20260503003324 | 45 | 114 | 0.9 | 1.7 | 0.00 | 0.00 | 0.00 | 56 | 1016.0 |
| 20260503002821 | 45 | 105 | 0.9 | 1.7 | 0.00 | 0.00 | 0.00 | 53 | 1016.1 |
| 20260503002318 | 46 | 86 | 0.0 | 0.0 | 0.00 | 0.00 | 0.00 | 51 | 1015.9 |
| 20260503001814 | 46 | 184 | 1.7 | 2.6 | 0.00 | 0.00 | 0.00 | 47 | 1016.1 |
| 20260503001310 | 46 | 241 | 0.0 | 1.7 | 0.00 | 0.00 | 0.00 | 45 | 1016.1 |
| 20260503000808 | 46 | 267 | 1.7 | 6.1 | 0.00 | 0.00 | 0.00 | 46 | 1016.0 |
| 20260503000305 | 46 | 180 | 0.9 | 2.6 | 0.00 | 0.00 | 0.00 | 50 | 1015.9 |
| 20260502235802 | 46 | 104 | 0.9 | 2.6 | 0.00 | 0.00 | 0.00 | 45 | 1016.0 |
| 20260502235300 | 47 | 238 | 0.0 | 1.7 | 0.00 | 0.00 | 0.00 | 48 | 1015.9 |
| 20260502234756 | 47 | 234 | 0.9 | 0.9 | 0.00 | 0.00 | 0.00 | 46 | 1015.7 |
| 20260502234253 | 47 | 111 | 4.3 | 5.2 | 0.00 | 0.00 | 0.00 | 49 | 1015.6 |
| 20260502233749 | 47 | 191 | 3.5 | 5.2 | 0.00 | 0.00 | 0.00 | 48 | 1015.6 |
| 20260502233246 | 47 | 114 | 0.9 | 2.6 | 0.00 | 0.00 | 0.00 | 47 | 1015.8 |
| 20260502232742 | 47 | 135 | 0.9 | 1.7 | 0.00 | 0.00 | 0.00 | 45 | 1015.6 |
| 20260502232239 | 47 | 205 | 1.7 | 3.5 | 0.00 | 0.00 | 0.00 | 45 | 1015.8 |
| 20260502231736 | 47 | 201 | 2.6 | 3.5 | 0.00 | 0.00 | 0.00 | 47 | 1015.7 |
| 20260502231234 | 47 | 222 | 5.2 | 6.1 | 0.00 | 0.00 | 0.00 | 46 | 1015.7 |
| 20260502230732 | 47 | 198 | 6.1 | 8.7 | 0.00 | 0.00 | 0.00 | 45 | 1015.5 |
| 20260502230230 | 48 | 284 | 4.3 | 6.1 | 0.00 | 0.00 | 0.00 | 42 | 1015.6 |
| 20260502225726 | 48 | 137 | 0.9 | 6.1 | 0.00 | 0.00 | 0.00 | 41 | 1015.5 |
| 20260502225218 | 48 | 232 | 0.0 | 1.7 | 0.00 | 0.00 | 0.00 | 43 | 1015.5 |
| 20260502224714 | 48 | 155 | 0.9 | 1.7 | 0.00 | 0.00 | 0.00 | 43 | 1015.3 |
| 20260502224211 | 48 | 220 | 0.0 | 1.7 | 0.00 | 0.00 | 0.00 | 42 | 1015.5 |
| 20260502223709 | 48 | 181 | 2.6 | 7.0 | 0.00 | 0.00 | 0.00 | 45 | 1015.5 |
| 20260502223207 | 48 | 34 | 0.0 | 3.5 | 0.00 | 0.00 | 0.00 | 42 | 1015.5 |
| 20260502222704 | 48 | 65 | 0.9 | 2.6 | 0.00 | 0.00 | 0.00 | 48 | 1015.4 |
| 20260502222201 | 48 | 247 | 4.3 | 6.1 | 0.00 | 0.00 | 0.00 | 43 | 1015.3 |
| 20260502221656 | 48 | 235 | 3.5 | 5.2 | 0.00 | 0.00 | 0.00 | 44 | 1015.3 |
| 20260502221153 | 48 | 110 | 0.9 | 7.8 | 0.00 | 0.00 | 0.00 | 42 | 1015.2 |
| 20260502220649 | 48 | 265 | 1.7 | 7.8 | 0.00 | 0.00 | 0.00 | 44 | 1015.3 |
| 20260502220146 | 49 | 158 | 3.5 | 6.1 | 0.00 | 0.00 | 0.00 | 44 | 1015.2 |
| 20260502215643 | 49 | 175 | 0.0 | 0.0 | 0.00 | 0.00 | 0.00 | 43 | 1015.3 |
| 20260502215139 | 49 | 171 | 3.5 | 5.2 | 0.00 | 0.00 | 0.00 | 42 | 1015.1 |
| 20260502214636 | 49 | 189 | 0.9 | 1.7 | 0.00 | 0.00 | 0.00 | 42 | 1015.2 |
| 20260502214128 | 49 | 285 | 0.0 | 2.6 | 0.00 | 0.00 | 0.00 | 41 | 1015.2 |
| 20260502213626 | 49 | 350 | 1.7 | 3.5 | 0.00 | 0.00 | 0.00 | 42 | 1015.1 |
| 20260502213123 | 49 | 169 | 3.5 | 3.5 | 0.00 | 0.00 | 0.00 | 45 | 1015.3 |
| 20260502212621 | 49 | 217 | 1.7 | 3.5 | 0.00 | 0.00 | 0.00 | 44 | 1015.2 |
| 20260502212120 | 48 | 165 | 4.3 | 8.7 | 0.00 | 0.00 | 0.00 | 46 | 1015.3 |
| 20260502211614 | 48 | 191 | 7.0 | 8.7 | 0.00 | 0.00 | 0.00 | 44 | 1015.1 |
| 20260502211111 | 49 | 251 | 4.3 | 9.6 | 0.00 | 0.00 | 0.00 | 45 | 1015.1 |
| 20260502210609 | 49 | 44 | 1.7 | 3.5 | 0.00 | 0.00 | 0.00 | 44 | 1015.0 |
| 20260502210106 | 49 | 172 | 1.7 | 6.1 | 0.00 | 0.00 | 0.00 | 42 | 1015.1 |
| 20260502205603 | 51 | 255 | 2.6 | 6.1 | 0.00 | 0.00 | 0.00 | 44 | 1015.1 |
| 20260502205100 | 49 | 283 | 1.7 | 3.5 | 0.00 | 0.00 | 0.00 | 40 | 1015.0 |
| 20260502204556 | 49 | 285 | 2.6 | 7.0 | 0.00 | 0.00 | 0.00 | 42 | 1015.0 |
| 20260502204054 | 49 | 102 | 0.9 | 2.6 | 0.00 | 0.00 | 0.00 | 44 | 1014.8 |